Weather History for KMQS - March, 2013

Change the Weather History Date:

Thursday, March 21, 2013

  Actual Average (KLNS) Record (KLNS)
Temperature  
Mean Temperature 32 °F -  
Max Temperature 37 °F 50 °F 67 °F (1978)
Min Temperature 28 °F 32 °F 11 °F (1986)
Degree Days  
Heating Degree Days 32    
Moisture  
Dew Point 18 °F    
Average Humidity 57    
Maximum Humidity 93    
Minimum Humidity 35    
Precipitation  
Precipitation 0.36 in - - ()
Sea Level Pressure  
Sea Level Pressure 29.77 in    
Wind  
Wind Speed 9 mph (NNW)    
Max Wind Speed 21 mph    
Max Gust Speed 25 mph    
Visibility 9 miles    
Events Snow    
Averages and records for this station are not official NWS values.
T = Trace of Precipitation, MM = Missing Value Source: NWS Daily Summary

Daily Weather History Graph

Daily Weather History Graph

Search for Another Location

Airport or City:

Trip Planner

Search our weather history database for the weather conditions in past years. The results will help you decide how hot, cold, wet, or windy it might be!

Date:

Astronomy

Mar. 21, 2013 Rise Set
Actual Time 7:04 AM EDT 7:16 PM EDT
Civil Twilight 6:37 AM EDT 7:43 PM EDT
Nautical Twilight 6:06 AM EDT 8:15 PM EDT
Astronomical Twilight 5:34 AM EDT 8:47 PM EDT
Moon 1:44 PM EDT (3/21) 3:24 AM EDT (3/21)
Length of Visible Light 13h 05m
Length of Day
12h 11m
Waxing Gibbous, 68% of the Moon is Illuminated
Mar 21
Waxing Gibbous
Mar 27
Full
Apr 3
Last Quarter
Apr 10
New
Apr 18
First Quarter

Hourly Weather History & Observations

Time (EDT) Temp. Windchill Dew Point Humidity Pressure Visibility Wind Dir Wind Speed Gust Speed Precip Events Conditions
12:15 AM 37.4 °F 33.8 °F 21.2 °F 52% 29.81 in 10.0 mi NNE 4.6 mph - N/A   Partly Cloudy
12:35 AM 37.4 °F 34.9 °F 21.2 °F 52% 29.81 in 10.0 mi North 3.5 mph - N/A   Partly Cloudy
12:55 AM 37.4 °F 32.1 °F 21.2 °F 52% 29.82 in 10.0 mi North 6.9 mph - N/A   Partly Cloudy
1:15 AM 37.4 °F 30.8 °F 21.2 °F 52% 29.82 in 10.0 mi North 9.2 mph - N/A   Mostly Cloudy
1:35 AM 33.8 °F 26.4 °F 26.6 °F 75% 29.82 in 4.0 mi North 9.2 mph 21.9 mph N/A Snow Light Snow
1:55 AM 33.8 °F 25.8 °F 30.2 °F 87% 29.82 in 4.0 mi North 10.4 mph - 0.02 in Snow Light Snow
2:15 AM 32.0 °F 24.2 °F 30.2 °F 93% 29.82 in 1.0 mi NNW 9.2 mph - 0.22 in Snow Light Snow
2:35 AM 32.0 °F 25.6 °F 30.2 °F 93% 29.82 in 4.0 mi NNW 6.9 mph - 0.26 in Snow Light Snow
2:55 AM 32.0 °F 28.7 °F 30.2 °F 93% 29.82 in 5.0 mi NNW 3.5 mph - 0.26 in Snow Light Snow
3:15 AM 32.0 °F 25.6 °F 30.2 °F 93% 29.81 in 4.0 mi North 6.9 mph - N/A Snow Light Snow
3:35 AM 32.0 °F 24.2 °F 30.2 °F 93% 29.80 in 3.0 mi NNW 9.2 mph - 0.05 in Snow Light Snow
3:55 AM 32.0 °F 26.4 °F 30.2 °F 93% 29.79 in 7.0 mi North 5.8 mph - 0.06 in Snow Light Snow
4:15 AM 32.0 °F 25.6 °F 28.4 °F 87% 29.78 in 8.0 mi NNW 6.9 mph - N/A Snow Light Snow
4:35 AM 32.0 °F 26.4 °F 28.4 °F 87% 29.77 in 10.0 mi North 5.8 mph - N/A   Scattered Clouds
5:15 AM 32.0 °F 24.8 °F 23.0 °F 69% 29.77 in 10.0 mi NNW 8.1 mph 21.9 mph N/A   Mostly Cloudy
5:35 AM 32.0 °F 26.4 °F 21.2 °F 64% 29.77 in 10.0 mi NNW 5.8 mph - N/A   Scattered Clouds
5:55 AM 32.0 °F 27.5 °F 23.0 °F 69% 29.77 in 10.0 mi NNW 4.6 mph - N/A   Clear
6:15 AM 32.0 °F 26.4 °F 23.0 °F 69% 29.77 in 10.0 mi NNW 5.8 mph - N/A   Clear
6:35 AM 32.0 °F 26.4 °F 23.0 °F 69% 29.77 in 10.0 mi NNW 5.8 mph - N/A   Clear
6:55 AM 32.0 °F 25.6 °F 24.8 °F 75% 29.78 in 10.0 mi North 6.9 mph - N/A   Partly Cloudy
7:15 AM 32.0 °F 26.4 °F 26.6 °F 80% 29.78 in 10.0 mi NNE 5.8 mph - N/A   Clear
7:35 AM 32.0 °F 26.4 °F 26.6 °F 80% 29.78 in 10.0 mi NNE 5.8 mph - N/A   Clear
8:15 AM 32.0 °F 27.5 °F 26.6 °F 80% 29.78 in 10.0 mi North 4.6 mph - N/A   Partly Cloudy
8:35 AM 32.0 °F 24.8 °F 26.6 °F 80% 29.79 in 3.0 mi North 8.1 mph - 0.01 in Snow Light Snow
8:55 AM 32.0 °F 25.6 °F 19.4 °F 60% 29.78 in 10.0 mi NNE 6.9 mph - 0.02 in   Scattered Clouds
9:15 AM 32.0 °F 26.4 °F 19.4 °F 60% 29.78 in 10.0 mi North 5.8 mph - N/A   Clear
9:35 AM 32.0 °F 24.8 °F 15.8 °F 51% 29.78 in 10.0 mi North 8.1 mph - N/A   Clear
9:55 AM 32.0 °F 24.8 °F 15.8 °F 51% 29.78 in 10.0 mi North 8.1 mph - N/A   Partly Cloudy
10:15 AM 32.0 °F 23.0 °F 17.6 °F 55% 29.77 in 10.0 mi NNW 11.5 mph 19.6 mph N/A   Partly Cloudy
10:35 AM 33.8 °F 25.3 °F 19.4 °F 56% 29.77 in 10.0 mi North 11.5 mph - N/A   Clear
10:55 AM 33.8 °F 25.8 °F 19.4 °F 56% 29.76 in 10.0 mi NNW 10.4 mph - N/A   Clear
11:15 AM 33.8 °F 25.3 °F 19.4 °F 56% 29.75 in 10.0 mi North 11.5 mph - N/A   Partly Cloudy
11:35 AM 33.8 °F 25.3 °F 17.6 °F 52% 29.75 in 10.0 mi North 11.5 mph 17.3 mph N/A   Scattered Clouds
11:55 AM 32.0 °F 25.6 °F 17.6 °F 55% 29.75 in 10.0 mi NW 6.9 mph - N/A   Mostly Cloudy
12:15 PM 33.8 °F 25.8 °F 14.0 °F 44% 29.74 in 10.0 mi North 10.4 mph 18.4 mph N/A   Overcast
12:35 PM 33.8 °F 25.8 °F 14.0 °F 44% 29.74 in 10.0 mi North 10.4 mph - N/A   Mostly Cloudy
12:55 PM 33.8 °F 27.0 °F 14.0 °F 44% 29.74 in 10.0 mi NNW 8.1 mph - N/A   Mostly Cloudy
1:15 PM 35.6 °F 25.9 °F 14.0 °F 41% 29.74 in 10.0 mi NW 16.1 mph 23.0 mph N/A   Mostly Cloudy
1:35 PM 35.6 °F 27.1 °F 14.0 °F 41% 29.73 in 10.0 mi NW 12.7 mph 19.6 mph N/A   Mostly Cloudy
1:55 PM 33.8 °F 25.3 °F 12.2 °F 41% 29.72 in 10.0 mi North 11.5 mph 19.6 mph N/A   Mostly Cloudy
2:15 PM 35.6 °F 27.1 °F 12.2 °F 38% 29.72 in 10.0 mi NNW 12.7 mph 19.6 mph N/A   Mostly Cloudy
2:35 PM 35.6 °F 25.9 °F 12.2 °F 38% 29.71 in 10.0 mi NW 16.1 mph 19.6 mph N/A   Mostly Cloudy
3:15 PM 35.6 °F 26.6 °F 10.4 °F 35% 29.70 in 10.0 mi WNW 13.8 mph - N/A   Partly Cloudy
3:35 PM 37.4 °F 28.5 °F 12.2 °F 36% 29.70 in 10.0 mi West 15.0 mph 23.0 mph N/A   Scattered Clouds
3:55 PM 33.8 °F 22.8 °F 14.0 °F 44% 29.70 in 10.0 mi NW 18.4 mph 23.0 mph N/A   Mostly Cloudy
4:15 PM 35.6 °F 27.5 °F 14.0 °F 41% 29.70 in 10.0 mi NNW 11.5 mph - N/A   Scattered Clouds
4:35 PM 33.8 °F 23.9 °F 14.0 °F 44% 29.70 in 10.0 mi NW 15.0 mph 23.0 mph N/A   Scattered Clouds
4:55 PM 32.0 °F 21.6 °F 12.2 °F 44% 29.71 in 10.0 mi NW 15.0 mph - N/A   Partly Cloudy
5:15 PM 33.8 °F 23.9 °F 10.4 °F 38% 29.71 in 10.0 mi NW 15.0 mph 19.6 mph N/A   Clear
5:35 PM 32.0 °F 21.2 °F 10.4 °F 41% 29.71 in 10.0 mi NW 16.1 mph 19.6 mph N/A   Partly Cloudy
5:55 PM 33.8 °F 22.8 °F 8.6 °F 35% 29.72 in 10.0 mi NW 18.4 mph 23.0 mph N/A   Scattered Clouds
6:15 PM 32.0 °F 20.8 °F 10.4 °F 41% 29.73 in 10.0 mi NW 17.3 mph 25.3 mph N/A   Partly Cloudy
6:35 PM 32.0 °F 19.8 °F 8.6 °F 38% 29.74 in 10.0 mi NW 20.7 mph 25.3 mph N/A   Partly Cloudy
6:55 PM 32.0 °F 19.8 °F 10.4 °F 41% 29.75 in 10.0 mi NW 20.7 mph - N/A   Clear
7:15 PM 30.2 °F 19.8 °F 8.6 °F 40% 29.76 in 10.0 mi WNW 13.8 mph - N/A   Clear
7:35 PM 30.2 °F 18.9 °F 8.6 °F 40% 29.76 in 10.0 mi NW 16.1 mph - N/A   Clear
7:55 PM 30.2 °F 19.3 °F 10.4 °F 44% 29.77 in 10.0 mi WNW 15.0 mph 24.2 mph N/A   Clear
8:15 PM 30.2 °F 18.1 °F 10.4 °F 44% 29.78 in 10.0 mi WNW 18.4 mph 24.2 mph N/A   Clear
8:55 PM 28.4 °F 17.5 °F 10.4 °F 47% 29.79 in 10.0 mi WNW 13.8 mph 20.7 mph N/A   Clear
9:15 PM 28.4 °F 16.6 °F 10.4 °F 47% 29.79 in 10.0 mi WNW 16.1 mph 23.0 mph N/A   Clear
9:35 PM 28.4 °F 17.0 °F 10.4 °F 47% 29.80 in 10.0 mi WNW 15.0 mph - N/A   Clear
10:15 PM 28.4 °F 17.5 °F 12.2 °F 51% 29.80 in 10.0 mi WNW 13.8 mph 20.7 mph N/A   Clear
10:35 PM 28.4 °F 18.0 °F 12.2 °F 51% 29.80 in 10.0 mi WNW 12.7 mph - N/A   Clear
11:15 PM 28.4 °F 18.5 °F 12.2 °F 51% 29.81 in 10.0 mi WNW 11.5 mph - N/A   Clear
11:35 PM 28.4 °F 16.6 °F 12.2 °F 51% 29.81 in 10.0 mi WNW 16.1 mph 19.6 mph N/A   Clear
11:55 PM 28.4 °F 16.6 °F 14.0 °F 55% 29.81 in 10.0 mi WNW 16.1 mph 21.9 mph N/A   Clear